STARLINK-2484

Last updated on Sat May 08 2021 00:02:05 GMT+0000 (Coordinated Universal Time)

1 48141U 21027BB 21127.58334491 -.00048871 00000-0 -34493-3 0 9996 2 48141 53.0466 191.7166 0002475 22.6872 293.7252 15.73249973 1764

Satellite not in orbit

STARLINK-2484